Toledo Metcalf, OH

1:09 AM EDT on June 27, 2017 (GMT -0400)
Metcalf

Weather History for KTDZ - April, 2013

Change the Weather History Date:

Saturday, April 13, 2013

  Actual Average (KTOL) Record (KTOL)
Temperature  
Mean Temperature 40 °F -  
Max Temperature 43 °F 59 °F 87 °F (1941)
Min Temperature 37 °F 36 °F 19 °F (1976)
Degree Days  
Heating Degree Days 26    
Moisture  
Dew Point 33 °F    
Average Humidity 75    
Maximum Humidity 87    
Minimum Humidity 60    
Precipitation  
Precipitation 0.02 in - - ()
Sea Level Pressure  
Sea Level Pressure 29.91 in    
Wind  
Wind Speed 15 mph (WSW)    
Max Wind Speed 21 mph    
Max Gust Speed 29 mph    
Visibility 10 miles    
Events Rain    
Averages and records for this station are not official NWS values.
T = Trace of Precipitation, MM = Missing Value Source: NWS Daily Summary

Daily Weather History Graph

Daily Weather History Graph

Search for Another Location

Airport or City:

Trip Planner

Search our weather history database for the weather conditions in past years. The results will help you decide how hot, cold, wet, or windy it might be!

Date:

Astronomy

Apr. 13, 2013 Rise Set
Actual Time 6:56 AM EDT 8:12 PM EDT
Civil Twilight 6:28 AM EDT 8:41 PM EDT
Nautical Twilight 5:53 AM EDT 9:15 PM EDT
Astronomical Twilight 5:17 AM EDT 9:52 PM EDT
Moon 8:45 AM EDT (4/13) 11:37 PM EDT (4/13)
Length of Visible Light 14h 13m
Length of Day
13h 15m
Waxing Crescent, 10% of the Moon is Illuminated
Apr 13
Waxing Crescent
Apr 18
First Quarter
Apr 25
Full
May 2
Last Quarter
May 9
New

Hourly Weather History & Observations

Time (EDT) Temp. Windchill Dew Point Humidity Pressure Visibility Wind Dir Wind Speed Gust Speed Precip Events Conditions
12:01 AM 42.8 °F 34.8 °F 35.6 °F 76% 29.83 in 10.0 mi SW 17.3 mph 21.9 mph N/A   Overcast
12:29 AM 42.8 °F 36.2 °F 35.6 °F 76% 29.84 in 10.0 mi WSW 12.7 mph - N/A   Overcast
12:53 AM 41.0 °F 33.5 °F 36.0 °F 82% 29.85 in 10.0 mi SW 13.8 mph - N/A   Overcast
1:53 AM 41.0 °F 33.5 °F 35.1 °F 79% 29.86 in 10.0 mi SW 13.8 mph - N/A   Overcast
2:53 AM 39.9 °F 31.4 °F 35.1 °F 83% 29.86 in 10.0 mi SW 16.1 mph - N/A   Overcast
3:12 AM 39.2 °F 30.8 °F 35.6 °F 87% 29.85 in 8.0 mi SW 15.0 mph - 0.01 in Rain Light Rain
3:22 AM 39.2 °F 31.2 °F 35.6 °F 87% 29.85 in 10.0 mi WSW 13.8 mph - 0.01 in   Overcast
3:53 AM 39.0 °F 29.9 °F 30.9 °F 73% 29.88 in 10.0 mi West 17.3 mph 27.6 mph 0.01 in   Overcast
4:53 AM 39.0 °F 31.4 °F 30.0 °F 70% 29.88 in 10.0 mi WSW 12.7 mph - N/A   Overcast
5:53 AM 39.0 °F 32.8 °F 32.0 °F 76% 29.87 in 10.0 mi SW 9.2 mph - N/A   Overcast
6:53 AM 37.9 °F 30.5 °F 33.1 °F 83% 29.87 in 10.0 mi SW 11.5 mph - N/A   Overcast
7:53 AM 39.0 °F 32.8 °F 34.0 °F 82% 29.87 in 10.0 mi SW 9.2 mph - N/A   Overcast
8:53 AM 39.9 °F 31.8 °F 34.0 °F 79% 29.88 in 10.0 mi WSW 15.0 mph 23.0 mph N/A   Overcast
9:53 AM 41.0 °F 33.1 °F 32.0 °F 70% 29.88 in 10.0 mi WSW 15.0 mph 24.2 mph N/A   Overcast
10:50 AM 42.8 °F 34.3 °F 32.0 °F 66% 29.88 in 10.0 mi WSW 19.6 mph - N/A   Overcast
10:53 AM 42.1 °F 33.1 °F 33.1 °F 70% 29.89 in 10.0 mi WSW 20.7 mph 27.6 mph N/A   Overcast
11:09 AM 42.8 °F 35.4 °F 33.8 °F 70% 29.88 in 10.0 mi WSW 15.0 mph - N/A   Overcast
11:28 AM 42.8 °F 34.5 °F 33.8 °F 70% 29.89 in 10.0 mi WSW 18.4 mph 26.5 mph N/A   Overcast
11:38 AM 37.4 °F 28.2 °F 33.8 °F 87% 29.89 in 5.0 mi West 16.1 mph 28.8 mph 0.00 in Rain Light Rain
11:53 AM 39.0 °F 29.9 °F 34.0 °F 82% 29.91 in 10.0 mi WSW 17.3 mph - 0.00 in   Overcast
12:53 PM 41.0 °F 31.6 °F 33.1 °F 73% 29.91 in 10.0 mi WSW 20.7 mph 26.5 mph N/A   Mostly Cloudy
1:53 PM 39.9 °F 31.1 °F 34.0 °F 79% 29.91 in 10.0 mi WSW 17.3 mph 24.2 mph 0.00 in Rain Light Rain
2:29 PM 39.2 °F 30.5 °F 33.8 °F 81% 29.91 in 9.0 mi West 16.1 mph 23.0 mph 0.01 in Rain Light Rain
2:53 PM 42.1 °F 34.2 °F 34.0 °F 73% 29.92 in 10.0 mi WSW 16.1 mph 26.5 mph 0.01 in   Overcast
3:01 PM 41.0 °F 33.1 °F 33.8 °F 76% 29.91 in 10.0 mi WSW 15.0 mph 25.3 mph N/A   Overcast
3:15 PM 41.0 °F 32.8 °F 33.8 °F 76% 29.91 in 10.0 mi West 16.1 mph 27.6 mph 0.00 in Rain Light Rain
3:53 PM 41.0 °F 33.5 °F 34.0 °F 76% 29.93 in 10.0 mi WSW 13.8 mph 21.9 mph 0.00 in   Overcast
4:53 PM 39.9 °F 31.1 °F 30.0 °F 68% 29.95 in 10.0 mi WSW 17.3 mph 24.2 mph 0.00 in   Overcast
5:53 PM 41.0 °F 33.1 °F 30.0 °F 65% 29.97 in 10.0 mi WSW 15.0 mph - N/A   Overcast
6:53 PM 41.0 °F 33.1 °F 28.0 °F 60% 29.99 in 10.0 mi West 15.0 mph - N/A   Overcast
8:53 PM 39.9 °F 34.5 °F 30.0 °F 68% 30.00 in 10.0 mi SW 8.1 mph - N/A   Overcast
9:53 PM 39.0 °F 34.8 °F 30.9 °F 73% 30.01 in 10.0 mi SW 5.8 mph - N/A   Overcast
10:53 PM 39.0 °F 34.8 °F 30.9 °F 73% 30.03 in 10.0 mi SSW 5.8 mph - N/A   Overcast
11:53 PM 39.0 °F 35.7 °F 32.0 °F 76% 30.03 in 10.0 mi SW 4.6 mph - N/A   Overcast